STARLINK-5722, 55610

Orbit data source: Space-Track

STARLINK-5722, 55610 is a payload satellite owned by SpaceX/Seattle (US) in LEO that was launched on Sun, 12 Feb 2023 UTC via an FALCON 9 launch vehicle from the Air Force Eastern Test Range (AFETR). Payload-class satellites include a variety of spacecraft equipped with specific instruments for various scientific and technological missions. These include communications satellites like Starlink; space stations such as the ISS; scientific satellites like the Hubble; Earth observation satellites from companies like Planet Labs, Umbra, and HawkEye 360; GPS; miniature CubeSats for education and research; and military/defense satellites.

Loading next visibility...
Identifier
55610, 2023-020AT
Orbit
LEO
Country
Flag of USUS
Related business
Manufacturer
SpaceX/Seattle
Mission
Operational Commercial Communications
Bus & Motor
STARLINK, Unknown motor
Mass
305 kg wet, ~290 kg dry
Launch date (UTC)
2023-02-12 (3 years ago)
Launch vehicle
FALCON 9
Launch site
Air Force Eastern Test Range (AFETR)
Object type
Payload
Rocket body
Debris
Shape & HBR
Box + 1 Pan, 10.1 m
Radar Cross Section
13.562 m², Large (>1 m²)

Expand to show TLE details & history
Last TLE update: 9 hours ago

TLE from 9 hours ago
0 STARLINK-5722
1 55610U 23020AT  26061.94181501  .00000545  00000-0  55427-4 0  9999
2 55610  43.0042  28.3841 0000992 264.5349  95.5380 15.02533281168051
Epoch: 2026-03-02T22:36Z
TLE epoch observation values (Epoch: 2026-03-02T22:36:12.816Z)
Latitude
-0.00005°
Longitude
-111.39735°
Altitude
558.933 km
Speed
7.584 km/s
True Right ascension
01h 53m 32s
True Declination
0° 00' 00"
Sunlit
Object was in daylight at epoch
Visualization orbit readout
Latitude
Unknown
Longitude
Unknown
Altitude
Unknown
Speed
Unknown
Apparent Right ascension
Unknown
Apparent Declination
Unknown
Sunlit
N/A
Visualization observer readout
Local Sidereal Time
11:23:51
Azimuth
Unknown
Elevation
Unknown
Doppler factor
Unknown
Orbital elements
Apogee altitude
561.7 km
Perigee altitude
560.323 km
Semi-major axis
6,939.148 km
Eccentricity
0.0001
Inclination
43.0042°
RAAN
28.3841°
Arg. of periapsis
264.5349°
True anomaly
95.54931°
Mean anomaly
95.538°
Eccentric anomaly
95.54366°
Mean motion
3.75478 °/min
Orbital period
95.88 mins
BSTAR
0.000055427
Loading maneuver chart data...
Computing Atmospheric mass density...
Loading historical data...
Loading historical data...
Loading historical data...
Loading historical data...
Loading historical data...
Loading historical data...
Loading historical data...

Documentation

Showing up to 5 results
|